DECAYED

COSMOS 2251 DEB, 34032 (Decayed)

Orbit data source: Space-Track

COSMOS 2251 DEB, 34032 was space debris in LEO originally from a launch on Wed, 16 Jun 1993 UTC launched from the Plesetsk Missile And Space Complex (PKMTR). The debris from Iridium 33, an American commercial communications satellite, has been tracked extensively since its accidental collision with the defunct Russian satellite Cosmos 2251 in 2009. This event, occurring at high speed in low Earth orbit (LEO), generated thousands of pieces of space debris, significantly increasing the risk of further collisions. The Iridium 33 debris cloud has impacted space traffic management and orbital debris mitigation strategies, making it a subject of ongoing study in space situational awareness.

Not visible in the next 10 days
Identifier
34032, 1993-036HT
Orbit
Decayed
Country
Flag of CISCIS
Related business
Manufacturer
Unknown
Mission
Decayed spacecraft
Bus & Motor
Unknown
Mass
Unknown
Launch date (UTC)
1993-06-16 (33 years ago)
Launch vehicle
Unknown
Launch site
Plesetsk Missile And Space Complex (PKMTR)
Object type
Payload
Rocket body
Debris
Shape & HBR
Unknown shape, 0.1 m
Radar Cross Section
Medium (>0.1 m² and <1 m²)

Expand to show TLE details & history
Last TLE update: 1 year ago

TLE from 1 year ago
0 COSMOS 2251 DEB
1 34032U 93036HT  25048.12830426  .05920756  61765-1  23320-1 0  9999
2 34032  73.9762 295.9809 0017567 166.5329 193.6378 15.92410856843988
Epoch: 2025-02-17T03:04Z
TLE epoch observation values (Epoch: 2025-02-17T03:04:45.488Z)
Latitude
-0.00005°
Longitude
102.43989°
Altitude
309.729 km
Speed
7.716 km/s
True Right ascension
19h 43m 55s
True Declination
0° 00' 00"
Sunlit
Object was in daylight at epoch
Visualization orbit readout
Latitude
Unknown
Longitude
Unknown
Altitude
Unknown
Speed
Unknown
Apparent Right ascension
Unknown
Apparent Declination
Unknown
Sunlit
N/A
Visualization observer readout
Local Sidereal Time
16:24:45
Azimuth
Unknown
Elevation
Unknown
Doppler factor
Unknown
Orbital elements
Apogee altitude
304.717 km
Perigee altitude
281.279 km
Semi-major axis
6,671.135 km
Eccentricity
0.00176
Inclination
73.9762°
RAAN
295.9809°
Arg. of periapsis
166.5329°
True anomaly
193.59044°
Mean anomaly
193.6378°
Eccentric anomaly
193.61411°
Mean motion
3.98331 °/min
Orbital period
90.38 mins
BSTAR
0.02332

Documentation

Showing up to 5 results
|